User: anonymous   Login
Location: Niedergestelen
(46.3129°N, 7.7822°E)
Time: 18:28:32
(UTC+00:00)
Language:

DMSP 5D-2 F9 DEB - Orbit

View from above orbital plane
View from above orbital plane
View from above satellite
View from above satellite

Ground track
Ground track

The orbit data is extracted from the following two-line orbital elements,

1 43329U 88006N   21172.62832988  .00002363  00000-0  76254-3 0  9993
2 43329  99.0963 238.3816 0023893 239.9314 119.9503 14.40038338444594
Epoch (UTC): 21 June 2021 15:04:47
Eccentricity: 0.0023893
inclination: 99.0963°
perigee height: 741 km
apogee height: 775 km
right ascension of ascending node: 238.3816°
argument of perigee: 239.9314°
revolutions per day: 14.40038338
mean anomaly at epoch: 119.9503°
orbit number at epoch: 44459

The dashed part of the orbit path shows where the satellite is in the earth's shadow,  

DLR